Location: Bishausen
(51.6334°N, 9.9631°E)
Time: 09:27:38
(UTC+00:00)

Cosmos 1703 - Pass Details

Date: 23 May 2024
Orbit: 485 x 499 km, 82.5° (Epoch: 23 June)

Event Time Altitude Azimuth Distance (km) Brightness Sun altitude
Exits shadow 02:01:34 10° 190° (S) 1,740 5.3 -9.3°
Reaches altitude 10° 02:01:39 10° 190° (S) 1,707 5.3 -9.2°
Maximum altitude 02:05:24 88° 280° (W) 509 3.1 -8.9°
Drops below altitude 10° 02:09:10 10° 10° (N) 1,715 6.9 -8.5°
Sets 02:11:17 0° 11° (N) 2,602 7.9 -8.3°
